Regional Weather Roundup
Issued by NWS

Home | Current Version | Previous Version | Text Only | Print | Product List | Glossary Off
Versions: 1 2 3 4 5 6 7 8 9 10 11 12 13 14 15 16 17 18 19 20 21 22 23 24 25 26 27 28 29 30 31 32 33 34 35 36 37 38 39 40 41 42 43 44 45 46 47 48 49 50

000
ASUS43 KDTX 030010
RWRMI
MICHIGAN HOURLY REGIONAL WEATHER ROUNDUP
NATIONAL WEATHER SERVICE DETROIT/PONTIAC MI
800 PM EDT SUN AUG 02 2015

NOTE: "FAIR" INDICATES FEW OR NO CLOUDS BELOW 12,000 FEET WITH NO
SIGNIFICANT WEATHER AND/OR OBSTRUCTION TO VISIBILITY.

MIZ047>049-052>055-059>063-066>070-074>076-081>083-030100-
SOUTHEAST LOWER MICHIGAN

CITY           SKY/WX    TMP DP  RH WIND       PRES   REMARKS
ADRIAN         PTCLDY    84  63  49 SW16G25   29.73S
6HR MIN TEMP:  84; 6HR MAX TEMP:  88;

ALMA           CLOUDY    74  57  56 N16G22    29.66R
ANN ARBOR      PTCLDY    85  63  47 SW16G22   29.70S
BAD AXE        RAIN      64  60  87 N17G24    29.70R
6HR MIN TEMP:  61; 6HR MAX TEMP:  82;

DETROIT CITY   PTCLDY    87  60  40 SW23G31   29.67F
6HR MIN TEMP:  87; 6HR MAX TEMP:  91;

DETROIT        MOCLDY    87  61  41 S21G31    29.70F
6HR MIN TEMP:  87; 6HR MAX TEMP:  92;

FLINT          CLOUDY    87  64  46 SW14G21   29.63F
6HR MIN TEMP:  87; 6HR MAX TEMP:  93;

GROSSE ILE     CLEAR     88  61  40 SW17G25   29.69S
HILLSDALE      PTCLDY    84  64  51 SW15G25   29.73F
HOWELL         MOCLDY    85  62  45 SW12G20   29.67R
6HR MIN TEMP:  85; 6HR MAX TEMP:  91;


CITY           SKY/WX    TMP DP  RH WIND       PRES   REMARKS
JACKSON        PTCLDY    85  63  47 SW21G39   29.69S
6HR MIN TEMP:  85; 6HR MAX TEMP:  88;

LAMBERTVILLE   CLEAR     86  61  42 SW10      29.74S
6HR MIN TEMP:  86; 6HR MAX TEMP:  90;

LANSING        CLOUDY    86  62  44 SW23G37   29.64S
6HR MIN TEMP:  86; 6HR MAX TEMP:  92;

LAPEER         NOT AVBL
MASON          MOCLDY    83  58  41 SW9G25    29.67R
MONROE         CLEAR     85  63  46 SW13G21   29.70F
MT. CLEMENS    MOCLDY    87  61  41 SW20G25   29.64S
6HR MIN TEMP:  87; 6HR MAX TEMP:  93;

PONTIAC        CLOUDY    85  63  47 SW10G25   29.66S
6HR MIN TEMP:  85; 6HR MAX TEMP:  90;

PORT HURON     CLOUDY    84  61  45 SW10      29.64R
TRI CITIES     CLOUDY    68  58  70 NE15      29.71R
6HR MIN TEMP:  68; 6HR MAX TEMP:  89; 6HR PCP:  0.05;

YPSILANTI      PTCLDY    89  63  41 SW20G26   29.70F HX  90
6HR MIN TEMP:  89; 6HR MAX TEMP:  96;

$$
MIZ043>046-050>051-056>058-064>065-071>073-077>080-030100-
SOUTHWEST LOWER MICHIGAN

CITY           SKY/WX    TMP DP  RH WIND       PRES   REMARKS
BATTLE CREEK   PTCLDY    86  63  45 SW22G30   29.67F
6HR MIN TEMP:  86; 6HR MAX TEMP:  92;

BENTON HARBOR  SUNNY     87  68  52 SW14G29   29.64F HX  90
6HR MIN TEMP:  84; 6HR MAX TEMP:  92;

BIG RAPIDS     RAIN      65  63  93 NW8       29.63F
6HR MIN TEMP:  64; 6HR MAX TEMP:  85; 6HR PCP:  0.21;

COLDWATER      PTCLDY    83  62  48 SW15G26   29.71F
6HR MIN TEMP:  83; 6HR MAX TEMP:  87;

HOLLAND        MOSUNNY   85  68  56 SW23G35   29.61F
6HR MIN TEMP:  85; 6HR MAX TEMP:  91;

GRAND RAPIDS   CLOUDY    86  66  51 SW28G36   29.59F
6HR MIN TEMP:  86; 6HR MAX TEMP:  91;

KALAMAZOO      PTCLDY    86  64  47 S20G28    29.65F
6HR MIN TEMP:  86; 6HR MAX TEMP:  92;

MARSHALL       PTCLDY    85  63  47 SW14G24   29.68F
MUSKEGON       CLOUDY    79  67  66 SW18G29   29.58R THUNDER
6HR MIN TEMP:  79; 6HR MAX TEMP:  87;

$$
MIZ016>042-030100-
NORTHERN LOWER MICHIGAN

CITY           SKY/WX    TMP DP  RH WIND       PRES   REMARKS
ALPENA         CLOUDY    65  62  90 S9        29.57F
6HR MIN TEMP:  65; 6HR MAX TEMP:  69; 6HR PCP:  0.23;

BEAVER ISLAND  CLOUDY    65  64  94 W5        29.58S
6HR MIN TEMP:  63; 6HR MAX TEMP:  68;

BELLAIRE       CLOUDY    63  59  88 SW6       29.60S
CADILLAC       RAIN      60  58  96 SE8       29.60F
CHARLEVOIX     LGT RAIN  64  62  94 CALM      29.61R
6HR MIN TEMP:  64; 6HR MAX TEMP:  73;

FRANKFORT      CLOUDY    62  62  98 CALM      29.57R
GRAYLING       LGT RAIN  60  58  95 S10       29.59F
6HR MIN TEMP:  58; 6HR MAX TEMP:  73;

HARBOR SPRINGS LGT RAIN  64  62  95 W3        29.56F
HOUGHTON LAKE  RAIN      61  59  93 CALM      29.62F
6HR MIN TEMP:  59; 6HR MAX TEMP:  79; 6HR PCP:  0.90;

MANISTEE       CLOUDY    61  55  82 SE5       29.57F
OSCODA         RAIN      65  63  95 E10       29.59F
PELLSTON       CLOUDY    64  62  93 NW5       29.56F
6HR MIN TEMP:  64; 6HR MAX TEMP:  72; 6HR PCP:  0.17;

TRAVERSE CITY  TSTM      61  58  90 S5        29.55F
6HR MIN TEMP:  60; 6HR MAX TEMP:  79; 6HR PCP:  0.74;

$$
MIZ007>008-015-030100-
EASTERN UPPER MICHIGAN

CITY           SKY/WX    TMP DP  RH WIND       PRES   REMARKS
KINROSS        CLOUDY    64  63  94 W5        29.56R
6HR MIN TEMP:  64; 6HR MAX TEMP:  72;

MACKINAC ISLAN   N/A     64  64 100 W3        29.57R
NEWBERRY       CLOUDY    68  62  82 W5        29.56S
6HR MIN TEMP:  65; 6HR MAX TEMP:  69; 6HR PCP:  0.03;

S. S. MARIE    CLOUDY    67  58  72 NW7       29.55R
6HR MIN TEMP:  67; 6HR MAX TEMP:  73; 6HR PCP:  0.01;

$$
MIZ004>006-011>014-085-030100-
CENTRAL UPPER MICHIGAN

CITY           SKY/WX    TMP DP  RH WIND       PRES   REMARKS
MANISTIQUE     PTSUNNY   68  61  77 NW5       29.58S
ESCANABA       PTSUNNY   68  64  88 W5        29.59S
6HR MIN TEMP:  64; 6HR MAX TEMP:  70;

MENOMINEE      CLOUDY    64  57  77 W5        29.60R
6HR MIN TEMP:  63; 6HR MAX TEMP:  79; 6HR PCP:  0.73;

SAWYER-GWINN   PTSUNNY   66  59  77 MISG      29.62R
$$
MIZ001>003-009>011-084-030100-
WESTERN UPPER MICHIGAN

CITY           SKY/WX    TMP DP  RH WIND       PRES   REMARKS
IRON MOUNTAIN  MOSUNNY   73  53  49 NW14      29.61R
6HR MIN TEMP:  63; 6HR MAX TEMP:  76; 6HR PCP:  0.14;

HOUGHTON       SUNNY     67  56  67 W15       29.62R
6HR MIN TEMP:  67; 6HR MAX TEMP:  72; 6HR PCP: TRACE;

COPPER HARBOR    N/A     70  57  63 NW8       29.58R
6HR MIN TEMP:  66; 6HR MAX TEMP:  73;

IRONWOOD       PTSUNNY   68  57  68 W8        29.65R
6HR MIN TEMP:  68; 6HR MAX TEMP:  72;

$$

ABBREVIATIONS USED IN REMARKS
   TC - TEMPERATURE IN CELSIUS
  WCI - WIND CHILL INDEX
   HX - HEAT INDEX
  VSB - VISIBILITY




USA.gov is the U.S. government's official web portal to all federal, state and local government web resources and services.